WZZ41MK EPGD-EKCH

Flight info

Callsign WZZ41MK
Flight time 0h 59m
Altitude 30000
Route DEXIR Y100 MALOX L621 LUSID DCT ROE M743 TIDVU
Aircraft A21N/M-SDE1E2E3FGIJ1J4RWXY/LB1

Departure

Time 2026-04-23 18:53
Airport Gdańsk Lech Wałęsa Airport (EPGD)

Arrival

Time 2026-04-23 19:52
Airport Copenhagen Kastrup Airport (EKCH)
Time Latitude Longitude Altitude Speed Heading
2026-04-23 18:11 54.38147 18.46500 448 ft 0 kts 22°
2026-04-23 18:38 54.38146 18.46500 448 ft 0 kts 21°
2026-04-23 18:38 54.38134 18.46490 448 ft 2 kts 24°
2026-04-23 18:38 54.38119 18.46481 448 ft 2 kts 20°
2026-04-23 18:39 54.38109 18.46463 448 ft 2 kts 69°
2026-04-23 18:39 54.38108 18.46439 448 ft 1 kts 106°
2026-04-23 18:39 54.38110 18.46429 448 ft 1 kts 116°
2026-04-23 18:39 54.38112 18.46425 448 ft 0 kts 113°
2026-04-23 18:42 54.38109 18.46435 448 ft 3 kts 113°
2026-04-23 18:42 54.38099 18.46475 448 ft 5 kts 112°
2026-04-23 18:43 54.38078 18.46561 448 ft 8 kts 111°
2026-04-23 18:43 54.38030 18.46606 448 ft 9 kts 188°
2026-04-23 18:43 54.37967 18.46579 448 ft 9 kts 170°
2026-04-23 18:43 54.37922 18.46674 448 ft 11 kts 113°
2026-04-23 18:44 54.37889 18.46808 449 ft 12 kts 112°
2026-04-23 18:44 54.37857 18.46942 449 ft 12 kts 112°
2026-04-23 18:44 54.37822 18.47084 450 ft 12 kts 112°
2026-04-23 18:44 54.37788 18.47219 452 ft 12 kts 113°
2026-04-23 18:45 54.37749 18.47370 452 ft 15 kts 110°
2026-04-23 18:45 54.37708 18.47539 454 ft 14 kts 112°
2026-04-23 18:45 54.37670 18.47692 459 ft 14 kts 112°
2026-04-23 18:45 54.37629 18.47858 462 ft 15 kts 112°
2026-04-23 18:46 54.37585 18.48038 466 ft 16 kts 112°
2026-04-23 18:46 54.37540 18.48221 470 ft 16 kts 112°
2026-04-23 18:46 54.37495 18.48404 474 ft 16 kts 112°
2026-04-23 18:46 54.37449 18.48592 479 ft 18 kts 112°
2026-04-23 18:47 54.37398 18.48794 484 ft 19 kts 112°
2026-04-23 18:47 54.37344 18.49013 488 ft 20 kts 112°
2026-04-23 18:47 54.37301 18.49189 488 ft 0 kts 114°
2026-04-23 18:48 54.37294 18.49215 489 ft 6 kts 117°
2026-04-23 18:48 54.37254 18.49267 489 ft 9 kts 171°
2026-04-23 18:48 54.37229 18.49262 488 ft 0 kts 198°
2026-04-23 18:49 54.37226 18.49261 488 ft 2 kts 198°
2026-04-23 18:49 54.37183 18.49210 488 ft 10 kts 227°
2026-04-23 18:50 54.37156 18.49134 488 ft 12 kts 251°
2026-04-23 18:50 54.37160 18.49038 486 ft 0 kts 289°
2026-04-23 18:52 54.37164 18.49019 485 ft 13 kts 290°
2026-04-23 18:52 54.37309 18.48443 474 ft 88 kts 292°
2026-04-23 18:52 54.37636 18.47123 448 ft 148 kts 293°
2026-04-23 18:52 54.38065 18.45398 854 ft 161 kts 294°
2026-04-23 18:53 54.38502 18.43613 1473 ft 167 kts 295°
2026-04-23 18:53 54.38947 18.41822 2211 ft 164 kts 296°
2026-04-23 18:53 54.39398 18.40034 2675 ft 170 kts 297°
2026-04-23 18:53 54.39869 18.38115 3038 ft 183 kts 295°
2026-04-23 18:54 54.40322 18.35923 3327 ft 204 kts 293°
2026-04-23 18:54 54.40795 18.33536 3709 ft 221 kts 292°
2026-04-23 18:54 54.41309 18.30948 4107 ft 239 kts 292°
2026-04-23 18:54 54.41862 18.28167 4615 ft 253 kts 292°
2026-04-23 18:55 54.42429 18.25301 5355 ft 256 kts 293°
2026-04-23 18:55 54.42992 18.22456 6181 ft 257 kts 294°
2026-04-23 18:55 54.43571 18.19539 6989 ft 259 kts 294°
2026-04-23 18:55 54.44149 18.16650 7750 ft 261 kts 294°
2026-04-23 18:56 54.44738 18.13700 8525 ft 264 kts 294°
2026-04-23 18:56 54.45330 18.10741 9285 ft 266 kts 294°
2026-04-23 18:56 54.45925 18.07755 10052 ft 269 kts 294°
2026-04-23 18:56 54.46530 18.04716 10621 ft 277 kts 294°
2026-04-23 18:57 54.47174 18.01496 10944 ft 294 kts 294°
2026-04-23 18:57 54.47855 17.98073 11427 ft 304 kts 294°
2026-04-23 18:57 54.48530 17.94645 12116 ft 306 kts 294°
2026-04-23 18:57 54.49208 17.91196 12848 ft 308 kts 294°
2026-04-23 18:58 54.49894 17.87707 13506 ft 310 kts 295°
2026-04-23 18:58 54.50582 17.84211 14161 ft 312 kts 295°
2026-04-23 18:58 54.51276 17.80675 14766 ft 315 kts 295°
2026-04-23 18:58 54.51976 17.77108 15367 ft 318 kts 295°
2026-04-23 18:59 54.52681 17.73509 15920 ft 321 kts 295°
2026-04-23 18:59 54.53389 17.69886 16499 ft 324 kts 295°
2026-04-23 18:59 54.54104 17.66224 17020 ft 327 kts 296°
2026-04-23 18:59 54.54832 17.62484 17567 ft 330 kts 296°
2026-04-23 19:00 54.55554 17.58773 18083 ft 332 kts 296°
2026-04-23 19:00 54.56282 17.55022 18607 ft 334 kts 296°
2026-04-23 19:00 54.57026 17.51182 19105 ft 337 kts 296°
2026-04-23 19:00 54.57764 17.47362 19634 ft 339 kts 296°
2026-04-23 19:01 54.58501 17.43544 20098 ft 342 kts 296°
2026-04-23 19:01 54.59249 17.39661 20543 ft 345 kts 296°
2026-04-23 19:01 54.60010 17.35699 21017 ft 347 kts 296°
2026-04-23 19:01 54.60761 17.31781 21454 ft 350 kts 296°
2026-04-23 19:02 54.61529 17.27769 21894 ft 353 kts 296°
2026-04-23 19:02 54.62297 17.23751 22344 ft 355 kts 296°
2026-04-23 19:02 54.63063 17.19734 22754 ft 357 kts 295°
2026-04-23 19:02 54.63834 17.15682 23170 ft 359 kts 296°
2026-04-23 19:03 54.64614 17.11571 23569 ft 362 kts 296°
2026-04-23 19:03 54.65392 17.07459 23958 ft 364 kts 295°
2026-04-23 19:03 54.66175 17.03304 24340 ft 366 kts 296°
2026-04-23 19:03 54.66967 16.99113 24716 ft 368 kts 295°
2026-04-23 19:04 54.67751 16.94944 25096 ft 370 kts 295°
2026-04-23 19:04 54.68549 16.90686 25481 ft 372 kts 296°
2026-04-23 19:04 54.69343 16.86444 25880 ft 374 kts 295°
2026-04-23 19:04 54.70134 16.82210 26248 ft 375 kts 296°
2026-04-23 19:05 54.70943 16.77874 26596 ft 378 kts 296°
2026-04-23 19:05 54.71742 16.73580 26920 ft 380 kts 296°
2026-04-23 19:05 54.72544 16.69251 27263 ft 382 kts 295°
2026-04-23 19:05 54.73351 16.64881 27592 ft 384 kts 295°
2026-04-23 19:06 54.74166 16.60472 27906 ft 386 kts 295°
2026-04-23 19:06 54.74973 16.56087 28243 ft 387 kts 296°
2026-04-23 19:06 54.75789 16.51653 28556 ft 389 kts 295°
2026-04-23 19:06 54.76612 16.47168 28883 ft 390 kts 295°
2026-04-23 19:07 54.77420 16.42747 29200 ft 392 kts 295°
2026-04-23 19:07 54.78245 16.38215 29504 ft 394 kts 295°
2026-04-23 19:07 54.79066 16.33707 29796 ft 396 kts 295°
2026-04-23 19:07 54.79892 16.29154 30035 ft 398 kts 295°
2026-04-23 19:08 54.80718 16.24594 30048 ft 398 kts 295°
2026-04-23 19:08 54.82369 16.15438 30047 ft 398 kts 294°
2026-04-23 19:09 54.84007 16.06316 30045 ft 398 kts 294°
2026-04-23 19:09 54.85638 15.97180 30045 ft 397 kts 294°
2026-04-23 19:10 54.87260 15.88049 30038 ft 397 kts 294°
2026-04-23 19:10 54.88876 15.78917 30034 ft 397 kts 294°
2026-04-23 19:11 54.90487 15.69754 30040 ft 399 kts 294°
2026-04-23 19:11 54.92096 15.60567 30044 ft 398 kts 294°
2026-04-23 19:11 54.92899 15.55960 29895 ft 398 kts 294°
2026-04-23 19:12 54.93689 15.51419 29632 ft 397 kts 294°
2026-04-23 19:12 54.94488 15.46808 29365 ft 396 kts 294°
2026-04-23 19:12 54.95274 15.42271 29102 ft 394 kts 294°
2026-04-23 19:12 54.96053 15.37758 28837 ft 393 kts 294°
2026-04-23 19:13 54.96836 15.33211 28571 ft 391 kts 293°
2026-04-23 19:13 54.97606 15.28728 28309 ft 390 kts 292°
2026-04-23 19:13 54.98382 15.24199 28044 ft 389 kts 292°
2026-04-23 19:13 54.99143 15.19749 27784 ft 388 kts 293°
2026-04-23 19:14 54.99906 15.15270 27521 ft 386 kts 293°
2026-04-23 19:14 55.00674 15.10760 27259 ft 385 kts 292°
2026-04-23 19:14 55.01422 15.06352 27000 ft 384 kts 292°
2026-04-23 19:14 55.02169 15.01931 26742 ft 382 kts 292°
2026-04-23 19:15 55.02917 14.97509 26481 ft 381 kts 292°
2026-04-23 19:15 55.03659 14.93097 26219 ft 380 kts 292°
2026-04-23 19:15 55.04396 14.88701 25957 ft 378 kts 292°
2026-04-23 19:15 55.05133 14.84294 25690 ft 376 kts 292°
2026-04-23 19:16 55.05880 14.79978 25419 ft 373 kts 294°
2026-04-23 19:16 55.06759 14.75760 25132 ft 369 kts 297°
2026-04-23 19:16 55.07776 14.71720 24761 ft 365 kts 301°
2026-04-23 19:17 55.10045 14.63906 23899 ft 359 kts 302°
2026-04-23 19:17 55.11165 14.60106 23460 ft 356 kts 302°
2026-04-23 19:17 55.12301 14.56239 23017 ft 354 kts 302°
2026-04-23 19:17 55.13413 14.52442 22574 ft 352 kts 302°
2026-04-23 19:18 55.14510 14.48690 22125 ft 350 kts 302°
2026-04-23 19:18 55.15609 14.44923 21690 ft 348 kts 302°
2026-04-23 19:18 55.16692 14.41204 21240 ft 346 kts 302°
2026-04-23 19:18 55.17786 14.37445 20798 ft 344 kts 302°
2026-04-23 19:19 55.19920 14.30084 19915 ft 341 kts 302°
2026-04-23 19:19 55.20995 14.26374 19463 ft 339 kts 301°
2026-04-23 19:20 55.23107 14.19070 18572 ft 336 kts 301°
2026-04-23 19:20 55.24142 14.15470 18133 ft 334 kts 301°
2026-04-23 19:20 55.25185 14.11840 17694 ft 332 kts 301°
2026-04-23 19:20 55.26218 14.08245 17258 ft 331 kts 301°
2026-04-23 19:21 55.27241 14.04674 16814 ft 329 kts 302°
2026-04-23 19:21 55.29276 13.97566 15932 ft 325 kts 302°
2026-04-23 19:21 55.30281 13.94045 15493 ft 323 kts 301°
2026-04-23 19:22 55.31278 13.90552 15069 ft 321 kts 301°
2026-04-23 19:22 55.32257 13.87115 14643 ft 319 kts 301°
2026-04-23 19:22 55.34221 13.80200 13780 ft 315 kts 301°
2026-04-23 19:23 55.35194 13.76770 13360 ft 313 kts 302°
2026-04-23 19:23 55.36156 13.73376 12927 ft 311 kts 301°
2026-04-23 19:23 55.37111 13.70005 12489 ft 309 kts 301°
2026-04-23 19:24 55.38991 13.63333 11646 ft 305 kts 301°
2026-04-23 19:24 55.39925 13.60018 11235 ft 303 kts 301°
2026-04-23 19:24 55.41552 13.53202 10400 ft 301 kts 293°
2026-04-23 19:25 55.42733 13.46436 10146 ft 277 kts 292°
2026-04-23 19:25 55.43819 13.40149 9525 ft 269 kts 292°
2026-04-23 19:26 55.44894 13.33926 8792 ft 265 kts 291°
2026-04-23 19:26 55.45423 13.30851 8446 ft 263 kts 291°
2026-04-23 19:27 55.45237 13.24458 7950 ft 279 kts 252°
2026-04-23 19:27 55.44067 13.14703 7591 ft 271 kts 268°
2026-04-23 19:28 55.43568 13.08109 7382 ft 271 kts 266°
2026-04-23 19:28 55.42965 13.01552 7148 ft 271 kts 265°
2026-04-23 19:29 55.42647 12.98302 7026 ft 271 kts 264°
2026-04-23 19:29 55.41995 12.91782 6768 ft 270 kts 264°
2026-04-23 19:30 55.41338 12.85324 6527 ft 269 kts 264°
2026-04-23 19:30 55.41006 12.82070 6388 ft 269 kts 264°
2026-04-23 19:30 55.40346 12.75650 6043 ft 267 kts 264°
2026-04-23 19:31 55.40013 12.72424 5839 ft 266 kts 264°
2026-04-23 19:31 55.39684 12.69243 5568 ft 265 kts 264°
2026-04-23 19:31 55.39353 12.66064 5255 ft 264 kts 264°
2026-04-23 19:31 55.39025 12.62917 5013 ft 261 kts 264°
2026-04-23 19:32 55.38699 12.59798 5002 ft 262 kts 264°
2026-04-23 19:32 55.38371 12.56672 5001 ft 262 kts 264°
2026-04-23 19:32 55.38045 12.53581 4990 ft 248 kts 264°
2026-04-23 19:32 55.37738 12.50694 4985 ft 232 kts 264°
2026-04-23 19:33 55.37627 12.47946 4972 ft 221 kts 285°
2026-04-23 19:33 55.38237 12.45656 4979 ft 199 kts 310°
2026-04-23 19:33 55.39917 12.42282 5051 ft 176 kts 315°
2026-04-23 19:34 55.40822 12.40838 5031 ft 176 kts 333°
2026-04-23 19:34 55.42014 12.40555 4910 ft 178 kts
2026-04-23 19:34 55.44402 12.41770 4484 ft 178 kts 15°
2026-04-23 19:35 55.45579 12.42453 4208 ft 178 kts 15°
2026-04-23 19:35 55.46751 12.43133 3877 ft 177 kts 15°
2026-04-23 19:35 55.47907 12.43876 3548 ft 178 kts 21°
2026-04-23 19:35 55.48968 12.44917 3209 ft 177 kts 30°
2026-04-23 19:36 55.49943 12.46156 2995 ft 165 kts 33°
2026-04-23 19:36 55.50824 12.47383 2990 ft 160 kts 35°
2026-04-23 19:36 55.51674 12.48648 2988 ft 160 kts 37°
2026-04-23 19:36 55.52510 12.49935 2771 ft 159 kts 37°
2026-04-23 19:37 55.53324 12.51207 2473 ft 150 kts 37°
2026-04-23 19:37 55.54075 12.52381 2158 ft 144 kts 37°
2026-04-23 19:37 55.54830 12.53554 1966 ft 144 kts 37°
2026-04-23 19:37 55.55572 12.54705 1662 ft 143 kts 37°
2026-04-23 19:38 55.56366 12.55702 1336 ft 139 kts 14°
2026-04-23 19:38 55.57329 12.55623 1326 ft 141 kts 348°
2026-04-23 19:38 55.58316 12.55549 1568 ft 145 kts
2026-04-23 19:38 55.59325 12.55714 1851 ft 152 kts
2026-04-23 19:39 55.60418 12.55923 2115 ft 164 kts
2026-04-23 19:39 55.61572 12.55758 2449 ft 170 kts 348°
2026-04-23 19:39 55.62730 12.55300 2859 ft 173 kts 346°
2026-04-23 19:39 55.63903 12.54794 2988 ft 173 kts 345°
2026-04-23 19:40 55.65066 12.54291 2992 ft 172 kts 345°
2026-04-23 19:40 55.66217 12.53794 2995 ft 171 kts 345°
2026-04-23 19:40 55.67368 12.53296 3002 ft 172 kts 345°
2026-04-23 19:40 55.68529 12.52788 3005 ft 172 kts 345°
2026-04-23 19:41 55.69677 12.52169 2993 ft 173 kts 333°
2026-04-23 19:41 55.70444 12.50594 2981 ft 176 kts 292°
2026-04-23 19:41 55.70412 12.48423 2994 ft 185 kts 252°
2026-04-23 19:41 55.69563 12.46646 3004 ft 193 kts 221°
2026-04-23 19:42 55.68456 12.45320 3000 ft 194 kts 216°
2026-04-23 19:42 55.67318 12.44064 2996 ft 193 kts 216°
2026-04-23 19:42 55.66163 12.42807 2997 ft 193 kts 216°
2026-04-23 19:42 55.65025 12.41575 3003 ft 193 kts 216°
2026-04-23 19:43 55.63877 12.40335 2995 ft 192 kts 216°
2026-04-23 19:43 55.62733 12.39103 2996 ft 192 kts 215°
2026-04-23 19:43 55.61602 12.37882 2998 ft 192 kts 215°
2026-04-23 19:43 55.60470 12.36650 2999 ft 192 kts 215°
2026-04-23 19:44 55.59331 12.35408 3000 ft 191 kts 216°
2026-04-23 19:44 55.58208 12.34180 2997 ft 191 kts 214°
2026-04-23 19:44 55.57071 12.32932 2997 ft 192 kts 215°
2026-04-23 19:44 55.55940 12.31691 2998 ft 192 kts 214°
2026-04-23 19:45 55.54810 12.30456 2999 ft 192 kts 214°
2026-04-23 19:45 55.53666 12.29207 3001 ft 192 kts 214°
2026-04-23 19:45 55.52530 12.27979 3003 ft 192 kts 211°
2026-04-23 19:45 55.51223 12.27490 2982 ft 197 kts 174°
2026-04-23 19:46 55.50003 12.28477 3005 ft 197 kts 141°
2026-04-23 19:46 55.48969 12.30075 3008 ft 197 kts 135°
2026-04-23 19:46 55.47963 12.31764 2998 ft 198 kts 135°
2026-04-23 19:46 55.46983 12.33430 3041 ft 198 kts 135°
2026-04-23 19:47 55.46000 12.35148 3022 ft 198 kts 130°
2026-04-23 19:47 55.45462 12.37314 2933 ft 194 kts 93°
2026-04-23 19:47 55.45772 12.39508 2680 ft 184 kts 53°
2026-04-23 19:47 55.46620 12.41134 2561 ft 180 kts 37°
2026-04-23 19:48 55.47584 12.42494 2439 ft 179 kts 34°
2026-04-23 19:48 55.48562 12.43866 2314 ft 179 kts 35°
2026-04-23 19:48 55.49512 12.45269 2182 ft 179 kts 37°
2026-04-23 19:48 55.50445 12.46709 2053 ft 178 kts 38°
2026-04-23 19:49 55.51367 12.48185 1927 ft 177 kts 38°
2026-04-23 19:49 55.52285 12.49628 1852 ft 177 kts 37°
2026-04-23 19:49 55.53198 12.51047 1634 ft 171 kts 37°
2026-04-23 19:49 55.54069 12.52391 1351 ft 161 kts 37°
2026-04-23 19:50 55.54878 12.53651 1087 ft 154 kts 38°
2026-04-23 19:50 55.55654 12.54851 868 ft 142 kts 37°
2026-04-23 19:50 55.56391 12.55989 695 ft 140 kts 38°
2026-04-23 19:50 55.57126 12.57117 559 ft 140 kts 38°
2026-04-23 19:51 55.57863 12.58237 386 ft 140 kts 38°
2026-04-23 19:51 55.58592 12.59377 198 ft 139 kts 39°
2026-04-23 19:51 55.59314 12.60492 42 ft 139 kts 39°
2026-04-23 19:51 55.59995 12.61536 12 ft 101 kts 43°
2026-04-23 19:52 55.60314 12.62041 15 ft 42 kts 40°
2026-04-23 19:52 55.60508 12.62282 15 ft 30 kts 21°
2026-04-23 19:52 55.60607 12.62334 15 ft 1 kts 11°
2026-04-23 19:52 55.60623 12.62340 15 ft 2 kts 11°
2026-04-23 19:53 55.60654 12.62351 15 ft 8 kts 11°
2026-04-23 19:53 55.60722 12.62375 16 ft 9 kts 10°
2026-04-23 19:53 55.60786 12.62409 18 ft 10 kts 26°
2026-04-23 19:53 55.60851 12.62496 19 ft 12 kts 40°
2026-04-23 19:54 55.60916 12.62594 20 ft 12 kts 40°
2026-04-23 19:54 55.60979 12.62693 21 ft 12 kts 41°
2026-04-23 19:54 55.61047 12.62800 23 ft 13 kts 40°
2026-04-23 19:54 55.61120 12.62910 23 ft 14 kts 40°
2026-04-23 19:55 55.61198 12.63030 21 ft 15 kts 40°
2026-04-23 19:55 55.61283 12.63159 21 ft 15 kts 41°
2026-04-23 19:55 55.61364 12.63287 22 ft 16 kts 41°
2026-04-23 19:55 55.61454 12.63427 22 ft 18 kts 40°
2026-04-23 19:56 55.61555 12.63585 23 ft 19 kts 40°
2026-04-23 19:56 55.61657 12.63741 24 ft 19 kts 41°
2026-04-23 19:56 55.61764 12.63907 22 ft 21 kts 40°
2026-04-23 19:56 55.61876 12.64072 20 ft 21 kts 31°
2026-04-23 19:57 55.62011 12.64187 18 ft 21 kts 24°
2026-04-23 19:57 55.62147 12.64301 15 ft 21 kts 25°
2026-04-23 19:57 55.62260 12.64455 15 ft 20 kts 65°
2026-04-23 19:57 55.62313 12.64670 15 ft 14 kts 73°
2026-04-23 19:58 55.62276 12.64835 15 ft 15 kts 123°
2026-04-23 19:58 55.62217 12.64993 16 ft 15 kts 122°
2026-04-23 19:58 55.62199 12.65160 16 ft 14 kts 47°
2026-04-23 19:58 55.62293 12.65200 18 ft 13 kts
2026-04-23 19:59 55.62382 12.65203 19 ft 13 kts 359°
2026-04-23 19:59 55.62437 12.65296 19 ft 12 kts 84°
2026-04-23 19:59 55.62441 12.65455 19 ft 13 kts 89°
2026-04-23 19:59 55.62443 12.65628 19 ft 15 kts 89°
2026-04-23 20:00 55.62458 12.65764 18 ft 8 kts 30°
2026-04-23 20:00 55.62483 12.65763 18 ft 3 kts 356°
2026-04-23 20:00 55.62498 12.65762 18 ft 1 kts
2026-04-23 20:00 55.62514 12.65763 19 ft 2 kts
2026-04-23 20:01 55.62519 12.65762 19 ft 0 kts 359°